• In Uzbekistan
  • List of Countries
  • For 7 days
  • Water Temperature
  • Satellite Maps
  • Weather Map
  • Weather Widgets
  • user-avatar
    Login

    Hourly Weather Wien

    Today, 24 May, Wednesday

    Time Temperature Precipitation Wind Pressure Humidity
    00:00 +14°C° 0.1 mm 3 mps 743 mmHg 87%
    01:00 +14°C° 0.1 mm 3 mps 744 mmHg 87%
    02:00 +14°C° 0.1 mm 3 mps 743 mmHg 88%
    03:00 +14°C° 0.1 mm 4 mps 743 mmHg 88%
    04:00 +14°C° 0.1 mm 4 mps 743 mmHg 89%
    05:00 +15°C° 0.1 mm 5 mps 743 mmHg 88%
    06:00 +15°C° 0.1 mm 5 mps 743 mmHg 87%
    07:00 +16°C° 0.1 mm 5 mps 744 mmHg 86%
    08:00 +16°C° 0.2 mm 6 mps 744 mmHg 83%
    09:00 +16°C° 0.2 mm 6 mps 744 mmHg 81%
    10:00 +16°C° 0.2 mm 6 mps 744 mmHg 79%
    11:00 +17°C° 0.1 mm 7 mps 744 mmHg 72%
    12:00 +17°C° 0.1 mm 7 mps 744 mmHg 64%
    13:00 +18°C° 0.1 mm 7 mps 745 mmHg 57%
    14:00 +18°C° 0 mm 7 mps 744 mmHg 56%
    15:00 +18°C° 0 mm 7 mps 744 mmHg 56%
    16:00 +18°C° 0 mm 7 mps 744 mmHg 55%
    17:00 +17°C° 0.1 mm 6 mps 744 mmHg 62%
    18:00 +16°C° 0.1 mm 5 mps 744 mmHg 68%
    19:00 +14°C° 0.1 mm 4 mps 744 mmHg 75%
    20:00 +13°C° 0.1 mm 3 mps 744 mmHg 78%
    21:00 +12°C° 0.1 mm 3 mps 744 mmHg 81%
    22:00 +12°C° 0.1 mm 2 mps 745 mmHg 84%
    23:00 +11°C° 0.4 mm 3 mps 745 mmHg 86%

    Tomorrow, 25 May, Thursday

    Time Temperature Precipitation Wind Pressure Humidity
    00:00 +11°C° 0.4 mm 3 mps 745 mmHg 88%
    01:00 +10°C° 0.4 mm 4 mps 744 mmHg 90%
    02:00 +10°C° 0.2 mm 4 mps 744 mmHg 91%
    03:00 +10°C° 0.2 mm 4 mps 744 mmHg 92%
    04:00 +10°C° 0.2 mm 4 mps 745 mmHg 93%
    05:00 +9°C° 0 mm 5 mps 745 mmHg 89%
    06:00 +10°C° 0 mm 6 mps 745 mmHg 86%
    07:00 +11°C° 0 mm 6 mps 745 mmHg 82%
    08:00 +13°C° 0.1 mm 6 mps 745 mmHg 79%
    09:00 +14°C° 0.1 mm 6 mps 745 mmHg 76%
    10:00 +15°C° 0.1 mm 6 mps 745 mmHg 72%
    11:00 +15°C° 0.1 mm 6 mps 745 mmHg 71%
    12:00 +16°C° 0.1 mm 6 mps 745 mmHg 70%
    13:00 +17°C° 0.1 mm 6 mps 745 mmHg 69%
    14:00 +17°C° 0.2 mm 6 mps 745 mmHg 68%
    15:00 +19°C° 0.2 mm 6 mps 744 mmHg 67%
    16:00 +19°C° 0.2 mm 6 mps 744 mmHg 66%
    17:00 +17°C° 0.1 mm 5 mps 744 mmHg 71%
    18:00 +17°C° 0.1 mm 4 mps 744 mmHg 75%
    19:00 +16°C° 0.1 mm 3 mps 744 mmHg 80%
    20:00 +14°C° 0 mm 3 mps 744 mmHg 83%
    21:00 +13°C° 0 mm 3 mps 744 mmHg 86%
    22:00 +12°C° 0 mm 3 mps 745 mmHg 89%
    23:00 +11°C° 0 mm 3 mps 745 mmHg 90%

    Day after tomorrow, 26 May, Friday

    Time Temperature Precipitation Wind Pressure Humidity
    00:00 +11°C° 0 mm 3 mps 745 mmHg 91%
    01:00 +11°C° 0 mm 3 mps 744 mmHg 92%
    02:00 +11°C° 0 mm 3 mps 744 mmHg 92%
    03:00 +11°C° 0 mm 4 mps 744 mmHg 93%
    04:00 +11°C° 0 mm 4 mps 744 mmHg 93%
    05:00 +12°C° 0 mm 4 mps 744 mmHg 89%
    06:00 +12°C° 0 mm 5 mps 745 mmHg 86%
    07:00 +13°C° 0 mm 5 mps 745 mmHg 83%
    08:00 +15°C° 0.1 mm 5 mps 745 mmHg 77%
    09:00 +16°C° 0.1 mm 5 mps 745 mmHg 71%
    10:00 +17°C° 0.1 mm 5 mps 745 mmHg 65%
    11:00 +19°C° 0.1 mm 5 mps 745 mmHg 62%
    12:00 +20°C° 0.1 mm 5 mps 745 mmHg 58%
    13:00 +21°C° 0.1 mm 5 mps 745 mmHg 55%
    14:00 +21°C° 0.1 mm 5 mps 744 mmHg 56%
    15:00 +21°C° 0.1 mm 5 mps 744 mmHg 58%
    16:00 +21°C° 0.1 mm 5 mps 744 mmHg 59%
    17:00 +20°C° 0.1 mm 4 mps 744 mmHg 66%
    18:00 +18°C° 0.1 mm 3 mps 744 mmHg 74%
    19:00 +17°C° 0.1 mm 3 mps 744 mmHg 81%
    20:00 +16°C° 0 mm 3 mps 745 mmHg 84%
    21:00 +14°C° 0 mm 3 mps 745 mmHg 86%
    22:00 +13°C° 0 mm 3 mps 745 mmHg 89%
    23:00 +12°C° 0 mm 3 mps 745 mmHg 90%

    27 May, Saturday

    Time Temperature Precipitation Wind Pressure Humidity
    00:00 +12°C° 0 mm 3 mps 745 mmHg 90%
    01:00 +11°C° 0 mm 3 mps 745 mmHg 91%
    02:00 +11°C° 0 mm 3 mps 746 mmHg 91%
    03:00 +12°C° 0 mm 2 mps 746 mmHg 91%
    04:00 +10°C° 0 mm 2 mps 746 mmHg 91%
    05:00 +13°C° 0 mm 2 mps 746 mmHg 86%
    06:00 +14°C° 0 mm 3 mps 746 mmHg 81%
    07:00 +16°C° 0 mm 3 mps 746 mmHg 76%
    08:00 +18°C° 0 mm 3 mps 747 mmHg 68%
    09:00 +19°C° 0 mm 3 mps 747 mmHg 61%
    10:00 +21°C° 0 mm 4 mps 747 mmHg 53%
    11:00 +21°C° 0 mm 4 mps 747 mmHg 52%
    12:00 +22°C° 0 mm 4 mps 747 mmHg 50%
    13:00 +22°C° 0 mm 4 mps 746 mmHg 48%
    14:00 +22°C° 0 mm 4 mps 746 mmHg 50%
    15:00 +22°C° 0 mm 4 mps 746 mmHg 51%
    16:00 +22°C° 0 mm 4 mps 746 mmHg 53%
    17:00 +21°C° 0 mm 3 mps 746 mmHg 61%
    18:00 +19°C° 0 mm 2 mps 746 mmHg 68%
    19:00 +18°C° 0 mm 2 mps 746 mmHg 76%
    20:00 +16°C° 0 mm 2 mps 747 mmHg 80%
    21:00 +15°C° 0 mm 2 mps 747 mmHg 83%
    22:00 +13°C° 0 mm 2 mps 748 mmHg 86%
    23:00 +13°C° 0 mm 2 mps 748 mmHg 87%

    28 May, Sunday

    Time Temperature Precipitation Wind Pressure Humidity
    00:00 +12°C° 0 mm 2 mps 748 mmHg 88%
    01:00 +12°C° 0 mm 2 mps 748 mmHg 89%
    02:00 +10°C° 0 mm 2 mps 748 mmHg 89%
    03:00 +9°C° 0 mm 2 mps 748 mmHg 90%
    04:00 +9°C° 0 mm 2 mps 748 mmHg 91%
    05:00 +12°C° 0 mm 1 mps 748 mmHg 84%
    06:00 +13°C° 0 mm 1 mps 748 mmHg 78%
    07:00 +15°C° 0 mm 1 mps 749 mmHg 71%
    08:00 +18°C° 0 mm 1 mps 749 mmHg 66%
    09:00 +19°C° 0 mm 2 mps 749 mmHg 60%
    10:00 +20°C° 0 mm 2 mps 749 mmHg 55%
    11:00 +21°C° 0 mm 2 mps 749 mmHg 53%
    12:00 +22°C° 0 mm 3 mps 749 mmHg 52%
    13:00 +24°C° 0 mm 3 mps 748 mmHg 50%
    14:00 +24°C° 0 mm 3 mps 748 mmHg 50%
    15:00 +24°C° 0 mm 3 mps 748 mmHg 51%
    16:00 +24°C° 0 mm 3 mps 748 mmHg 52%
    17:00 +22°C° 0 mm 3 mps 748 mmHg 58%
    18:00 +20°C° 0 mm 3 mps 748 mmHg 64%
    19:00 +19°C° 0 mm 2 mps 748 mmHg 71%
    20:00 +17°C° 0 mm 2 mps 748 mmHg 73%
    21:00 +16°C° 0 mm 3 mps 748 mmHg 75%
    22:00 +14°C° 0 mm 3 mps 748 mmHg 78%
    23:00 +14°C° 0 mm 3 mps 748 mmHg 79%

    29 May, Monday

    Time Temperature Precipitation Wind Pressure Humidity
    00:00 +13°C° 0 mm 3 mps 748 mmHg 81%
    01:00 +13°C° 0 mm 3 mps 748 mmHg 83%
    02:00 +12°C° 0 mm 3 mps 748 mmHg 84%
    03:00 +12°C° 0 mm 3 mps 748 mmHg 85%
    04:00 +12°C° 0 mm 3 mps 747 mmHg 86%
    05:00 +14°C° 0 mm 3 mps 748 mmHg 81%
    06:00 +15°C° 0 mm 4 mps 748 mmHg 76%
    07:00 +18°C° 0 mm 4 mps 748 mmHg 71%
    08:00 +20°C° 0 mm 5 mps 748 mmHg 66%
    09:00 +21°C° 0 mm 5 mps 747 mmHg 61%
    10:00 +23°C° 0 mm 6 mps 747 mmHg 56%
    11:00 +24°C° 0 mm 6 mps 747 mmHg 54%
    12:00 +26°C° 0 mm 6 mps 747 mmHg 52%
    13:00 +26°C° 0 mm 6 mps 746 mmHg 51%
    14:00 +26°C° 0 mm 6 mps 746 mmHg 52%
    15:00 +26°C° 0 mm 6 mps 746 mmHg 53%
    16:00 +26°C° 0 mm 6 mps 745 mmHg 55%
    17:00 +25°C° 0 mm 5 mps 745 mmHg 61%
    18:00 +22°C° 0 mm 5 mps 745 mmHg 68%
    19:00 +21°C° 0 mm 4 mps 745 mmHg 74%
    20:00 +20°C° 0 mm 4 mps 745 mmHg 77%
    21:00 +18°C° 0 mm 4 mps 745 mmHg 80%
    22:00 +17°C° 0 mm 4 mps 745 mmHg 83%
    23:00 +17°C° 0 mm 4 mps 745 mmHg 85%
    Show more